Flag for Ethiopia Weather past 2 weeks in Addis Ababa, Ethiopia

Now
68 °F

Passing clouds.


Feels Like: 68 °F
Forecast: 45 / 77 °F
Wind: 18 mph from Northeast

Location: Addis Ababa Airport

Current Time: Apr 27, 2015 at 9:50:51 PM

Latest Report: Apr 27, 2015 at 9:00 PM


Visibility: N/A

Pressure: 30.30 "Hg

Humidity: 35%

Dew point: 39 °F

Location of Addis AbabaLocation

Historic Weather in Addis Ababa — Graph

°F

Addis Ababa temperature yesterday

Maximum temperature yesterday: 73 °F (at 7:00 PM)
Minimum temperature yesterday: 61 °F (at 5:00 AM)
Average temperature yesterday: 66 °F

Past Weeks' High & Low Weather Summary

 TemperatureHumidityPressure
High81 °F (Apr 20, 3:00 PM)82% (Apr 14, 4:00 AM)30.48 "Hg (Apr 14, 4:00 AM)
Low52 °F (Apr 18, 6:00 AM)17% (Apr 17, 1:00 PM)30.21 "Hg (Apr 15, 3:00 PM)
Average67 °F41%30.33 "Hg
* Reported Apr 12 8:00 PM — Apr 27 8:00 PM, Addis Ababa, Weather by CustomWeather, © 2015

Note: Actual official high and low records may vary slightly from our data, if they occured in-between our weather recording intervals... More about our weather records

Advertising

Addis Ababa weather history for previous 24 hours

 ConditionsComfort  
Time TempWeatherWind HumidityBarometerVisibility
8:00 PM
Mon, Apr 27
70 °FPassing clouds.18 mph35%30.27 "HgN/A
7:00 PM72 °FPassing clouds.21 mph36%30.27 "HgN/A
6:00 PM73 °FPartly sunny.16 mph38%30.24 "HgN/A
5:00 PM75 °FPartly sunny.21 mph36%30.21 "HgN/A
4:00 PM75 °FPartly sunny.16 mph36%30.24 "HgN/A
3:00 PM75 °FPartly sunny.16 mph36%30.24 "HgN/A
2:00 PM75 °FPartly sunny.9 mph36%30.27 "HgN/A
12:00 PM68 °FPartly sunny.9 mph53%30.33 "HgN/A
11:00 AM70 °FPartly sunny.12 mph46%30.36 "HgN/A
10:00 AM70 °FMild.16 mph46%30.36 "HgN/A
6:00 AM59 °FPartly cloudy.2 mph63%30.36 "HgN/A
5:00 AM61 °FPassing clouds.5 mph63%30.33 "HgN/A
4:00 AM61 °FPassing clouds.5 mph63%30.33 "HgN/A
3:00 AM61 °FPassing clouds.2 mph63%30.30 "HgN/A
2:00 AM61 °FPassing clouds.5 mph63%30.33 "HgN/A
1:00 AM61 °FPassing clouds.5 mph63%30.33 "HgN/A
12:00 AM63 °FPassing clouds.5 mph56%30.33 "HgN/A
11:00 PM
Sun, Apr 26
66 °FPassing clouds.7 mph49%30.33 "HgN/A
10:00 PM66 °FPassing clouds.9 mph49%30.33 "HgN/A
9:00 PM68 °FPartly cloudy.16 mph43%30.30 "HgN/A
Weather by CustomWeather, © 2015

See weather overviewHow to use our weather pages